This is the latest recevied weather packets stored in our database for station/object W0SS-13. If no packets are shown the sender has not sent any weather packets the latest 10 day(s).
| Time | Temp. | Humidity | Pressure | Rain* | Wind** | Luminosity | Snow |
|---|---|---|---|---|---|---|---|
| 1777931175 | 26.67° C | 44% | 1003 hPa | 0 mm | - | 358 W/m² | - |
| 1777930871 | 26.67° C | 44% | 1003.2 hPa | 0 mm | - | 294 W/m² | - |
| 1777930568 | 26.67° C | 45% | 1003.1 hPa | 0 mm | - | 348 W/m² | - |
| 1777930265 | 26.67° C | 49% | 1003.2 hPa | 0 mm | - | 331 W/m² | - |
| 1777929961 | 26.67° C | 44% | 1003.3 hPa | 0 mm | - | 322 W/m² | - |
| 1777929658 | 26.11° C | 46% | 1003.1 hPa | 0 mm | - | 316 W/m² | - |
| 1777929355 | 26.67° C | 48% | 1003.2 hPa | 0 mm | - | 297 W/m² | - |
| 1777929052 | 26.67° C | 50% | 1003.1 hPa | 0 mm | - | 304 W/m² | - |
| 1777928749 | 26.67° C | 47% | 1003.2 hPa | 0 mm | - | 520 W/m² | - |
| 1777928445 | 26.11° C | 50% | 1003.3 hPa | 0 mm | - | 363 W/m² | - |
| 1777928143 | 26.67° C | 49% | 1003.3 hPa | 0 mm | - | 325 W/m² | - |
| 1777927841 | 26.67° C | 48% | 1003.3 hPa | 0 mm | - | 363 W/m² | - |
| 1777927539 | 26.67° C | 49% | 1003.3 hPa | 0 mm | - | 276 W/m² | - |
| 1777927238 | 26.67° C | 47% | 1003.2 hPa | 0 mm | - | 325 W/m² | - |
| 1777926935 | 26.67° C | 47% | 1003.7 hPa | 0 mm | - | 352 W/m² | - |
| 1777926633 | 26.67° C | 47% | 1003.5 hPa | 0 mm | - | 440 W/m² | - |
| 1777926328 | 27.22° C | 45% | 1003.5 hPa | 0 mm | - | 440 W/m² | - |
| 1777926025 | 27.22° C | 46% | 1003.5 hPa | 0 mm | - | 645 W/m² | - |
| 1777925722 | 27.22° C | 45% | 1003.5 hPa | 0 mm | - | 500 W/m² | - |
| 1777925420 | 27.78° C | 45% | 1003.5 hPa | 0 mm | - | 471 W/m² | - |
| 1777925116 | 27.22° C | 45% | 1003.5 hPa | 0 mm | - | 727 W/m² | - |
| 1777924813 | 27.78° C | 45% | 1003.6 hPa | 0 mm | - | 644 W/m² | - |
| 1777924509 | 27.78° C | 46% | 1003.7 hPa | 0 mm | - | 721 W/m² | - |
| 1777924206 | 27.22° C | 45% | 1003.5 hPa | 0 mm | - | 717 W/m² | - |
| 1777923902 | 27.22° C | 41% | 1003.6 hPa | 0 mm | - | 741 W/m² | - |
* Rain latest hour (hover to see other rain measurements)
** Current wind speed in m/s (hover to see current wind gust speed)